Portada
METAR-TAF:

METAR-TAF

Aeroports :

Kermanxah, Iran

latitud: 34-16N, longitud: 047-07E, altitud: 1320 m

Observació

L'informe es va fer fa 51 minuts, a les 22:00 UTC
Vent calma
Temperatura 2°C
Humitat 55%
Pressió 1023 hPa
Visibilitat 10 km o més
sense núvols per sota de 1500 mi sense presència de cumulonimbus.

METAR: OICC 132200Z 00000KT CAVOK 02/M06 Q1023 A3022

Hora: 02:21 (22:51 UTC)


TAF: manca

Observacions i pronòstics meteorològics de més de 4000 aeroports (METAR i TAF).

Les estacions disponibles són els punts grocs i vermells al mapa.

Posi el ratolí al punt desitjat per veure el nom de l'estació.

Feu clic per veure les observacions i els pronòstics meteorològics.

Per canviar el mapa: feu clic els botons verds amb una creu de color negre per apropar; al botó verd amb un guió per allunyar la imatge; o en les fletxes verdes per a mapes adjacents.


METAR-TAF: